Temp
-12 -12 -12 -12 -12 -11 -11 -11 -11 -11 -11 -11 -11 -11 -11 -11 -12 -11 -12 -12 -12 -12 -12 -11 -11 -12 -11 -10 -10 -11 -13 -14 -15 -15 -15 -15 -14 -14 -13 -14 -14 -13 -13 -14 -15
-12 -12 -12 -12 -12 -12 -12 -11 -11 -11 -11 -11 -11 -11 -11 -12 -12 -12 -12 -12 -12 -12 -12 -12 -11 -12 -11 -10 -11 -11 -13 -14 -16 -15 -15 -15 -14 -14 -14 -14 -13 -13 -12 -13 -14
-12 -12 -12 -13 -13 -12 -12 -11 -11 -11 -11 -11 -11 -11 -12 -12 -12 -12 -12 -12 -12 -12 -12 -11 -11 -11 -11 -11 -11 -11 -13 -13 -16 -14 -14 -15 -14 -14 -14 -14 -15 -14 -14 -14 -14
-13 -12 -12 -13 -12 -13 -12 -12 -12 -12 -12 -11 -11 -11 -12 -12 -12 -12 -12 -12 -12 -12 -12 -12 -11 -12 -11 -11 -10 -12 -13 -13 -15 -14 -15 -14 -13 -14 -15 -14 -14 -14 -13 -13 -13
-13 -13 -13 -13 -13 -13 -13 -12 -12 -12 -12 -11 -11 -11 -11 -12 -13 -12 -12 -12 -12 -12 -12 -12 -12 -12 -11 -10 -10 -11 -13 -13 -14 -15 -14 -14 -13 -14 -14 -14 -14 -14 -14 -13 -13
-13 -13 -13 -13 -13 -13 -13 -13 -12 -12 -12 -12 -11 -11 -11 -11 -12 -12 -12 -12 -12 -12 -12 -12 -12 -12 -12 -11 -11 -11 -12 -13 -15 -15 -13 -14 -14 -13 -14 -13 -14 -14 -14 -13 -13
-13 -13 -13 -13 -13 -13 -13 -13 -13 -12 -12 -12 -11 -11 -12 -12 -11 -12 -13 -12 -12 -12 -12 -12 -12 -12 -12 -11 -11 -11 -12 -13 -14 -14 -15 -14 -14 -13 -14 -14 -14 -14 -13 -13 -13
-13 -13 -13 -13 -13 -13 -13 -13 -13 -13 -12 -12 -11 -12 -12 -12 -11 -12 -12 -12 -12 -12 -12 -12 -12 -12 -12 -11 -11 -12 -12 -13 -14 -15 -15 -15 -15 -14 -14 -14 -14 -14 -13 -13 -13
-13 -13 -14 -14 -14 -13 -13 -13 -13 -13 -12 -12 -12 -11 -12 -12 -12 -11 -12 -12 -12 -12 -12 -12 -12 -12 -12 -12 -11 -11 -13 -13 -14 -16 -14 -14 -14 -14 -14 -14 -14 -14 -14 -14 -14
-15 -16 -16 -15 -15 -14 -14 -14 -13 -13 -12 -12 -12 -12 -12 -12 -12 -12 -12 -12 -12 -12 -11 -12 -12 -12 -12 -12 -12 -12 -12 -14 -14 -15 -14 -14 -14 -14 -14 -14 -14 -13 -14 -13 -14
-16 -16 -16 -15 -14 -14 -15 -16 -14 -13 -12 -12 -12 -12 -12 -12 -12 -12 -12 -11 -11 -12 -12 -12 -12 -13 -13 -12 -12 -12 -13 -14 -15 -15 -15 -15 -14 -14 -14 -14 -14 -13 -13 -14 -13
-15 -16 -15 -14 -14 -14 -14 -14 -14 -13 -13 -13 -12 -12 -13 -12 -12 -12 -12 -12 -12 -12 -13 -12 -12 -13 -13 -13 -12 -12 -12 -14 -15 -15 -15 -15 -15 -15 -14 -14 -14 -13 -13 -14 -14
-15 -14 -14 -14 -14 -14 -14 -14 -13 -13 -12 -13 -13 -12 -13 -12 -13 -12 -12 -13 -12 -12 -12 -12 -13 -13 -13 -13 -12 -12 -12 -14 -15 -16 -15 -15 -15 -15 -15 -14 -14 -14 -14 -14 -14
-14 -14 -14 -14 -14 -14 -14 -14 -14 -13 -12 -11 -13 -12 -13 -12 -12 -13 -13 -13 -12 -12 -13 -12 -13 -13 -13 -13 -13 -13 -13 -14 -15 -16 -15 -16 -15 -15 -14 -15 -14 -14 -15 -14 -14
-14 -14 -14 -14 -14 -15 -14 -15 -14 -14 -13 -13 -12 -12 -13 -12 -13 -14 -14 -13 -13 -13 -13 -12 -13 -13 -13 -13 -13 -14 -14 -14 -14 -15 -15 -15 -15 -15 -15 -14 -14 -14 -15 -15 -15
-15 -14 -13 -14 -15 -15 -15 -15 -14 -14 -11 -12 -12 -12 -12 -13 -13 -13 -13 -13 -13 -13 -13 -12 -13 -13 -13 -13 -13 -14 -14 -15 -15 -15 -15 -15 -16 -15 -15 -15 -15 -14 -14 -15 -14
-16 -16 -14 -14 -17 -15 -16 -15 -16 -13 -12 -12 -13 -12 -13 -13 -13 -13 -13 -13 -12 -13 -12 -12 -13 -13 -14 -14 -14 -14 -14 -15 -15 -15 -14 -16 -16 -15 -15 -15 -15 -15 -14 -15 -15
-19 -19 -17 -16 -17 -17 -17 -16 -15 -12 -12 -14 -14 -14 -13 -15 -14 -14 -13 -13 -12 -13 -13 -13 -13 -13 -13 -13 -14 -14 -14 -14 -15 -15 -15 -15 -15 -15 -15 -15 -15 -15 -15 -14 -14
-21 -21 -20 -21 -20 -20 -19 -18 -13 -12 -12 -15 -18 -16 -14 -14 -15 -15 -14 -13 -13 -13 -13 -14 -13 -14 -15 -15 -15 -15 -14 -15 -16 -16 -15 -15 -15 -15 -15 -15 -15 -15 -15 -15 -15
-21 -21 -21 -21 -21 -21 -21 -18 -14 -15 -16 -17 -19 -18 -18 -18 -17 -16 -15 -14 -14 -13 -14 -13 -14 -15 -15 -16 -15 -16 -15 -15 -16 -16 -15 -14 -15 -15 -15 -15 -16 -15 -15 -14 -14
-22 -21 -21 -22 -21 -21 -20 -18 -19 -18 -18 -19 -18 -19 -19 -17 -17 -17 -16 -15 -15 -14 -14 -15 -15 -15 -16 -15 -16 -15 -15 -16 -15 -15 -15 -14 -14 -15 -15 -15 -15 -15 -15 -15 -15
-22 -21 -21 -22 -21 -20 -19 -19 -19 -19 -19 -19 -20 -20 -20 -19 -19 -18 -17 -15 -17 -18 -16 -15 -16 -16 -15 -16 -16 -15 -15 -16 -15 -15 -16 -16 -14 -15 -15 -15 -15 -15 -15 -15 -15
-22 -22 -22 -21 -21 -20 -19 -19 -19 -19 -19 -19 -20 -19 -21 -20 -19 -18 -17 -17 -17 -17 -15 -17 -15 -16 -16 -15 -16 -16 -15 -15 -16 -16 -15 -16 -14 -15 -16 -16 -16 -16 -16 -16 -15
-23 -22 -21 -20 -20 -20 -19 -19 -20 -20 -20 -19 -20 -20 -20 -21 -21 -20 -18 -18 -18 -18 -16 -17 -16 -15 -12 -14 -15 -16 -15 -15 -16 -15 -15 -15 -14 -15 -16 -16 -16 -15 -15 -16 -15
-23 -22 -21 -20 -19 -19 -20 -19 -19 -19 -20 -20 -20 -20 -20 -20 -21 -20 -20 -18 -17 -17 -17 -17 -17 -15 -15 -16 -16 -16 -16 -16 -15 -15 -16 -15 -16 -15 -16 -16 -15 -16 -16 -16 -16
-22 -21 -21 -20 -20 -20 -20 -20 -19 -20 -20 -20 -20 -20 -21 -20 -20 -20 -20 -18 -17 -17 -17 -17 -16 -16 -15 -17 -17 -17 -16 -16 -16 -16 -16 -16 -15 -16 -15 -16 -16 -16 -16 -16 -15
-22 -22 -21 -20 -21 -21 -20 -19 -19 -20 -20 -21 -20 -21 -20 -20 -21 -21 -21 -19 -18 -17 -17 -17 -17 -17 -15 -17 -17 -17 -14 -16 -16 -16 -16 -16 -15 -15 -16 -16 -17 -16 -16 -16 -16
Height
5792 5794 5796 5798 5798 5799 5801 5803 5804 5805 5806 5807 5807 5808 5807 5807 5806 5808 5807 5807 5804 5801 5799 5799 5797 5795 5793 5789 5784 5780 5777 5776 5772 5773 5774 5772 5769 5768 5766 5763 5765 5762 5757 5754 5755
5784 5786 5788 5789 5791 5792 5794 5796 5797 5798 5800 5801 5801 5802 5801 5802 5802 5803 5803 5802 5800 5798 5797 5796 5794 5792 5791 5786 5781 5778 5776 5774 5772 5770 5771 5771 5768 5767 5765 5760 5759 5753 5748 5750 5752
5774 5777 5779 5781 5782 5784 5785 5788 5789 5791 5793 5794 5795 5796 5795 5797 5798 5800 5797 5797 5796 5794 5793 5792 5790 5789 5787 5784 5780 5775 5773 5772 5772 5769 5769 5768 5766 5766 5763 5758 5754 5750 5748 5746 5748
5764 5766 5768 5771 5773 5775 5777 5779 5781 5784 5786 5787 5788 5790 5789 5791 5793 5794 5793 5792 5791 5790 5789 5789 5787 5785 5783 5780 5776 5773 5771 5770 5770 5769 5770 5767 5766 5764 5760 5758 5756 5751 5747 5747 5749
5754 5756 5758 5761 5763 5766 5768 5771 5773 5775 5777 5779 5781 5783 5785 5788 5787 5788 5788 5788 5786 5786 5785 5785 5784 5783 5781 5777 5774 5769 5769 5769 5769 5770 5770 5767 5766 5766 5763 5759 5754 5753 5750 5749 5749
5743 5746 5749 5750 5753 5756 5759 5761 5764 5767 5769 5771 5772 5775 5780 5784 5778 5781 5782 5782 5782 5781 5781 5781 5780 5779 5779 5775 5771 5769 5768 5768 5767 5768 5770 5768 5763 5761 5763 5759 5757 5750 5749 5745 5746
5730 5735 5738 5741 5744 5746 5749 5752 5755 5758 5761 5763 5764 5768 5775 5776 5774 5778 5775 5777 5777 5777 5776 5776 5776 5776 5774 5772 5770 5768 5767 5766 5767 5765 5765 5768 5762 5762 5763 5759 5754 5751 5749 5747 5746
5718 5721 5726 5730 5733 5737 5740 5742 5744 5748 5752 5754 5756 5759 5769 5764 5768 5771 5771 5772 5771 5772 5771 5771 5772 5772 5771 5769 5768 5766 5766 5765 5768 5764 5766 5765 5764 5758 5760 5760 5754 5754 5750 5746 5745
5704 5709 5713 5718 5722 5726 5730 5733 5734 5738 5741 5745 5748 5752 5761 5759 5761 5764 5767 5766 5766 5766 5766 5766 5766 5768 5768 5765 5765 5763 5764 5764 5760 5761 5764 5766 5765 5762 5759 5760 5757 5752 5750 5748 5748
5694 5698 5702 5706 5711 5715 5718 5721 5723 5728 5731 5738 5739 5745 5749 5754 5754 5757 5759 5759 5761 5761 5763 5763 5761 5763 5764 5762 5762 5762 5760 5761 5760 5762 5760 5761 5762 5762 5760 5759 5759 5757 5754 5751 5749
5685 5688 5693 5697 5702 5705 5708 5710 5714 5718 5723 5730 5731 5736 5740 5743 5747 5749 5752 5753 5755 5757 5758 5756 5758 5758 5760 5758 5758 5757 5756 5758 5760 5760 5753 5754 5757 5760 5759 5755 5756 5757 5756 5751 5750
5675 5679 5682 5686 5691 5694 5697 5700 5702 5707 5714 5718 5721 5729 5730 5734 5738 5740 5743 5747 5748 5753 5750 5752 5756 5753 5755 5755 5755 5754 5753 5756 5757 5754 5756 5753 5754 5755 5757 5755 5754 5753 5751 5753 5751
5663 5667 5671 5676 5679 5682 5686 5690 5693 5697 5702 5715 5715 5718 5725 5722 5731 5730 5736 5739 5741 5742 5745 5746 5752 5748 5750 5751 5750 5751 5751 5753 5754 5751 5754 5754 5750 5751 5752 5753 5753 5752 5751 5751 5752
5649 5652 5657 5662 5668 5670 5674 5679 5683 5688 5694 5702 5709 5709 5715 5716 5718 5725 5727 5732 5732 5735 5739 5739 5744 5743 5745 5746 5745 5748 5747 5748 5749 5748 5750 5751 5748 5747 5747 5750 5751 5751 5751 5751 5752
5632 5637 5643 5647 5652 5654 5662 5665 5673 5681 5685 5691 5697 5699 5705 5708 5716 5717 5718 5719 5725 5729 5731 5736 5737 5737 5739 5742 5741 5744 5743 5743 5744 5744 5746 5749 5748 5747 5744 5745 5748 5747 5750 5749 5751
5616 5619 5625 5631 5632 5638 5644 5650 5659 5669 5674 5678 5682 5690 5694 5698 5702 5709 5710 5713 5718 5717 5720 5724 5727 5729 5733 5736 5738 5740 5739 5740 5741 5741 5741 5745 5743 5743 5741 5741 5739 5741 5745 5749 5750
5599 5603 5610 5615 5613 5623 5627 5635 5644 5654 5666 5672 5672 5675 5681 5689 5694 5696 5702 5704 5708 5711 5714 5718 5721 5724 5726 5729 5732 5734 5734 5734 5736 5735 5737 5736 5737 5739 5741 5743 5742 5741 5743 5744 5746
5583 5586 5591 5597 5597 5605 5611 5618 5625 5653 5657 5657 5659 5660 5665 5673 5682 5687 5690 5695 5699 5703 5707 5708 5712 5716 5723 5724 5728 5729 5731 5731 5731 5733 5734 5734 5732 5736 5736 5739 5739 5739 5739 5742 5740
5568 5573 5579 5583 5585 5590 5595 5596 5622 5639 5646 5645 5644 5645 5652 5658 5667 5675 5680 5686 5692 5695 5699 5702 5704 5713 5714 5718 5721 5724 5723 5729 5727 5726 5725 5728 5731 5731 5732 5732 5734 5735 5735 5735 5736
5557 5562 5570 5571 5574 5579 5578 5589 5611 5621 5624 5625 5630 5635 5642 5647 5655 5661 5669 5676 5681 5685 5690 5694 5696 5702 5708 5711 5713 5715 5721 5721 5721 5720 5719 5722 5726 5727 5727 5731 5730 5729 5730 5731 5732
5546 5551 5561 5561 5564 5566 5579 5595 5600 5601 5603 5605 5614 5625 5629 5635 5642 5646 5652 5665 5672 5677 5680 5685 5688 5695 5697 5699 5705 5709 5710 5713 5714 5715 5714 5716 5720 5724 5723 5723 5724 5726 5726 5727 5729
5535 5540 5548 5550 5555 5564 5578 5586 5593 5593 5597 5601 5602 5610 5620 5627 5629 5635 5646 5652 5658 5664 5669 5677 5680 5681 5688 5692 5695 5702 5704 5707 5705 5712 5712 5711 5714 5718 5719 5722 5722 5719 5722 5722 5725
5524 5528 5534 5538 5548 5559 5570 5578 5583 5587 5587 5592 5594 5599 5610 5619 5624 5627 5632 5640 5646 5649 5657 5667 5666 5671 5678 5684 5685 5688 5694 5699 5702 5703 5702 5704 5708 5712 5714 5714 5716 5715 5716 5715 5717
5512 5514 5521 5528 5542 5552 5559 5567 5572 5576 5582 5585 5591 5592 5599 5603 5608 5616 5627 5634 5637 5642 5644 5646 5654 5658 5664 5675 5680 5683 5686 5692 5693 5691 5696 5697 5703 5707 5707 5706 5710 5710 5710 5709 5709
5493 5499 5512 5520 5533 5538 5544 5555 5563 5566 5573 5576 5582 5588 5595 5597 5602 5606 5616 5622 5628 5633 5638 5638 5640 5651 5657 5664 5672 5674 5680 5684 5684 5686 5687 5695 5694 5701 5701 5698 5700 5700 5704 5702 5702
5477 5488 5498 5508 5515 5521 5528 5544 5554 5561 5563 5567 5573 5583 5584 5587 5596 5600 5605 5611 5612 5620 5628 5632 5635 5636 5644 5652 5660 5664 5669 5673 5675 5678 5680 5683 5684 5692 5693 5695 5694 5696 5698 5695 5695
5461 5474 5479 5491 5496 5503 5522 5538 5544 5546 5549 5557 5565 5571 5573 5585 5582 5586 5594 5598 5600 5610 5617 5621 5627 5629 5632 5642 5648 5650 5655 5661 5667 5672 5676 5674 5679 5684 5684 5684 5685 5685 5688 5689 5689
Wind_Speed
36 35 34 33 32 30 29 28 29 30 28 30 31 30 30 28 27 24 25 24 24 20 21 20 21 24 25 29 27 17 7 3 3 13 19 24 26 18 21 22 31 21 25 21 21
39 39 37 36 34 33 31 31 30 29 29 29 30 29 30 29 28 25 24 23 22 20 21 19 20 22 23 27 25 16 8 11 2 16 21 23 18 19 25 20 24 25 27 23 25
42 42 40 39 38 35 32 33 32 30 30 30 31 30 31 28 27 22 23 23 21 20 18 19 19 21 22 24 19 12 10 8 6 16 10 16 14 17 20 17 22 25 25 23 18
47 46 44 43 41 38 33 33 35 33 30 31 31 30 32 29 27 22 22 24 21 20 17 17 18 19 20 23 20 6 7 9 8 13 10 12 11 19 20 13 16 21 13 6 12
49 46 45 46 43 41 36 33 34 34 33 33 32 31 29 27 28 19 22 20 19 17 18 17 16 17 18 21 23 9 8 8 6 8 7 8 14 11 13 13 13 16 9 8 11
56 50 45 43 42 42 41 37 37 35 34 35 34 32 26 23 29 20 21 19 18 17 16 16 15 15 14 19 21 13 6 5 8 8 5 12 17 18 17 21 12 15 17 10 7
64 57 51 43 42 41 42 39 38 37 34 35 36 32 24 22 27 18 19 16 17 18 17 14 13 14 13 16 19 10 8 8 8 9 24 20 23 15 20 18 17 15 14 12 8
53 51 51 45 43 43 40 41 39 38 36 35 38 35 20 29 25 20 20 18 16 18 16 13 12 11 11 13 16 8 9 7 4 13 16 19 9 23 28 17 13 14 13 14 13
43 41 41 42 41 41 41 40 40 38 39 38 37 37 24 27 25 22 20 21 18 17 15 15 12 10 8 11 13 12 9 9 6 14 17 13 12 15 9 26 19 14 14 12 12
41 36 37 37 37 38 37 38 40 39 41 38 39 36 34 26 27 23 23 23 23 19 15 17 13 11 6 7 8 12 13 6 13 11 13 16 14 12 18 15 15 10 8 11 11
42 39 40 40 39 37 38 37 41 41 39 36 39 37 33 33 28 27 26 25 24 20 14 22 16 9 8 7 10 12 9 11 12 16 23 23 14 15 15 17 18 9 11 10 12
43 42 43 43 42 42 40 39 42 43 41 38 39 35 33 33 30 29 30 28 24 21 24 23 12 15 12 9 10 10 10 11 10 15 19 17 18 16 16 9 14 11 13 13 9
47 46 46 46 47 47 45 44 45 44 41 32 35 38 27 39 26 33 32 30 27 26 26 24 14 21 16 12 10 10 10 12 16 20 17 9 14 16 17 16 8 12 10 10 7
50 50 49 49 49 49 49 49 50 48 45 40 33 37 33 34 34 26 30 31 32 27 25 27 21 22 20 16 12 11 12 14 29 23 26 15 19 16 22 15 10 8 11 2 3
56 55 53 53 51 48 48 49 50 48 49 44 43 44 38 37 30 28 30 33 31 28 29 21 22 24 21 16 16 10 17 15 19 31 31 24 18 11 18 14 15 13 10 8 3
61 62 61 58 52 53 50 50 50 52 51 48 47 44 41 36 35 31 34 34 31 35 35 31 28 27 22 19 19 19 20 17 20 22 28 21 24 12 15 17 17 18 18 9 8
57 60 64 64 49 55 52 51 52 57 54 51 52 52 47 40 34 36 32 37 36 34 34 32 29 27 28 24 24 24 24 22 21 22 17 17 27 14 13 20 23 26 24 13 2
48 47 54 55 52 52 52 58 62 55 55 55 51 52 55 48 42 37 36 32 34 33 35 36 34 30 26 26 21 25 24 25 18 17 12 21 20 16 13 16 24 21 16 17 15
41 40 41 39 40 39 48 58 62 59 59 53 39 52 56 51 43 42 43 39 35 34 35 37 36 26 29 27 26 24 28 15 18 24 26 24 23 27 21 16 22 21 23 20 19
41 41 36 40 41 40 44 50 50 47 50 53 48 51 40 34 21 35 43 40 37 37 35 36 37 31 31 29 29 26 23 26 26 28 28 28 22 18 21 17 25 21 26 28 23
40 41 36 39 41 46 37 21 14 30 37 53 54 60 50 50 41 32 45 43 38 38 35 36 36 34 34 37 34 31 32 32 33 33 30 30 24 21 21 21 22 26 30 21 20
41 38 37 40 41 37 25 21 19 26 26 26 40 51 61 49 49 43 42 47 40 30 38 31 36 41 40 36 40 33 32 33 38 30 30 33 30 28 21 22 29 30 25 23 18
44 44 41 43 40 33 28 28 28 28 32 32 32 32 43 56 51 47 43 38 43 43 44 33 40 45 45 42 41 40 35 36 32 34 39 33 31 29 29 31 24 30 27 25 25
50 51 49 47 40 37 35 32 33 35 34 34 30 34 35 53 52 60 55 40 42 43 42 38 40 46 43 41 40 42 39 37 36 38 33 36 31 28 31 32 32 28 28 34 24
60 59 55 50 41 43 46 42 38 37 37 40 37 35 33 37 58 58 49 50 46 46 48 43 41 44 47 47 43 46 40 37 37 32 37 29 32 29 24 35 29 30 30 31 35
61 60 59 55 51 49 49 41 38 38 44 42 39 35 33 37 34 50 54 54 56 50 49 48 47 47 50 50 47 52 49 38 36 31 32 30 37 33 30 28 37 31 31 32 40
58 59 62 61 60 56 50 44 42 45 46 45 42 42 42 31 40 50 54 59 63 41 40 56 52 50 52 51 50 55 50 54 41 34 32 35 30 32 26 23 26 33 30 37 35
Wind_Direction
252 252 254 256 255 255 259 263 267 266 269 272 270 270 273 274 278 283 290 298 306 313 318 323 324 335 347 346 334 307 276 254 12 288 263 286 311 322 331 325 324 318 309 312 313
255 258 257 258 258 259 261 265 266 267 267 270 271 270 269 269 274 285 290 291 298 310 317 323 327 338 352 346 330 311 276 268 314 285 289 289 291 312 318 320 325 332 323 292 283
257 260 261 262 263 261 261 264 265 267 270 270 273 272 270 270 272 283 286 288 295 303 312 320 325 337 352 347 323 320 304 277 258 301 325 303 289 322 322 323 321 324 311 294 259
258 257 259 262 263 262 258 259 264 265 266 269 270 272 274 272 277 276 278 286 286 294 307 320 325 338 351 344 338 307 298 298 278 278 309 302 322 328 340 327 328 327 327 301 238
261 260 259 260 261 264 263 260 263 263 262 263 267 272 276 282 274 278 275 275 282 288 299 313 322 336 348 349 341 328 288 276 255 288 5 330 348 347 338 337 344 352 335 261 248
258 262 261 259 261 260 261 260 263 265 259 261 262 268 271 285 273 270 273 275 278 289 292 295 314 325 351 349 344 317 270 233 245 273 346 333 335 347 12 4 352 7 19 30 280
252 253 255 258 260 261 259 260 260 262 260 258 261 262 270 265 273 270 267 266 277 286 284 282 305 319 349 349 341 321 274 244 262 326 340 324 326 324 343 351 6 7 15 25 17
248 247 247 251 258 261 261 259 257 258 259 257 259 260 260 261 275 273 262 259 263 278 279 274 287 309 342 345 338 315 254 266 243 336 345 339 326 310 335 328 9 15 6 18 18
248 251 249 250 252 255 257 258 256 256 257 257 259 261 251 253 260 270 270 262 261 269 273 267 272 292 326 333 332 321 238 245 286 302 313 313 309 341 346 345 357 15 15 27 26
255 256 264 261 257 253 253 256 256 252 252 255 256 256 256 249 258 260 262 262 261 257 272 260 260 277 296 313 308 298 252 266 289 280 285 314 315 331 334 341 360 36 30 23 35
260 254 259 259 257 255 257 258 253 252 251 256 255 255 255 253 248 253 255 257 262 257 261 256 261 264 261 286 293 296 295 218 252 291 316 314 319 312 318 327 332 3 39 29 32
262 262 255 261 260 260 258 258 258 254 250 251 253 254 256 254 245 243 248 251 257 255 251 259 270 249 247 251 271 297 301 233 229 288 292 286 298 293 307 328 348 357 12 42 22
263 260 257 256 259 259 259 259 258 256 253 245 254 257 252 254 243 240 243 246 249 250 255 261 243 255 249 243 259 278 288 226 222 251 278 291 289 294 299 310 295 346 351 41 41
268 267 264 262 260 259 258 257 258 258 257 249 249 252 252 256 245 242 243 243 243 247 253 257 250 258 257 267 246 260 271 231 224 237 256 271 284 286 285 292 267 334 319 31 56
272 267 265 264 264 258 258 255 257 259 258 257 249 247 248 254 254 239 243 238 240 246 244 259 251 259 260 262 244 239 243 241 244 236 245 242 259 280 278 297 272 278 295 311 136
270 269 266 266 264 262 258 255 255 252 255 256 257 253 249 246 251 243 242 246 239 239 241 242 240 244 252 244 241 234 236 233 244 241 248 254 245 232 269 284 301 295 281 290 316
265 264 262 262 257 262 257 252 248 255 258 258 255 260 257 248 244 247 238 243 247 246 250 254 249 246 242 239 234 239 240 246 241 251 262 234 228 233 238 261 273 288 271 290 264
256 256 258 258 254 254 250 250 250 253 256 251 253 249 251 250 242 237 240 237 243 245 244 246 243 247 254 254 245 244 252 254 254 262 249 223 238 237 217 257 274 281 278 287 306
245 243 245 245 246 243 246 246 252 252 253 248 237 249 255 252 244 232 238 240 240 246 249 248 250 242 242 242 235 225 235 247 256 249 238 226 246 256 230 234 263 270 273 292 289
241 238 235 241 243 241 242 250 251 251 245 242 218 232 235 233 252 232 228 233 233 240 243 243 246 237 234 234 229 229 243 232 234 244 245 239 250 267 222 238 253 262 275 274 280
245 239 232 236 241 243 250 262 221 223 232 235 232 227 229 230 215 210 216 220 234 234 241 243 239 233 221 230 233 224 224 234 241 238 247 253 244 264 249 238 260 261 261 259 267
245 242 235 239 239 241 239 231 230 232 237 240 238 237 226 223 214 214 219 215 216 230 246 239 231 230 234 222 233 218 226 233 245 249 249 247 250 247 252 245 250 253 261 266 256
241 246 245 243 236 236 234 235 234 235 238 238 242 243 229 225 225 218 209 205 217 216 218 229 229 226 231 230 229 220 223 224 234 253 239 238 248 252 249 247 260 255 252 281 282
239 243 244 243 241 238 238 237 239 237 238 247 250 242 238 224 227 227 220 221 221 215 213 208 226 227 231 233 231 230 225 226 242 248 242 247 255 258 252 249 245 244 278 275 271
240 244 244 245 245 244 239 238 237 240 240 242 246 251 256 247 229 236 229 212 213 218 219 214 213 224 227 230 224 230 229 232 234 247 246 245 244 245 241 259 247 257 260 277 256
242 247 247 245 243 240 238 236 238 239 241 240 244 245 243 248 251 241 237 223 216 205 214 216 216 216 224 228 222 230 230 227 230 235 251 253 243 248 242 257 253 254 256 273 266
245 247 247 244 242 242 245 246 243 236 235 239 242 238 241 247 235 238 236 224 225 203 222 222 219 224 224 225 226 223 233 228 227 233 240 250 253 242 248 256 259 255 250 263 276